Simultaneous Nadir Overpasses (SNOs) Predictions

Prediction of SNOs between GOES-16 and NOAA-20 Satellite Orbit:

Table of predicted SNOs for the next 14.0 days since TLE Epoch: 5/14/2022
Index Date Time (GOES-16) GOES-16 Lat,Lon NOAA-20 Lat,Lon Distance(km) Time Diff (sec)
1 05/15/2022 06:32:59 -0.02, -75.21 0.28, -76.50 146.94 80
2 05/16/2022 06:11:34 -0.02, -75.21 -0.74, -71.97 369.61 80
3 05/17/2022 18:36:11 0.02, -75.22 -0.44, -77.28 233.89 80
4 05/18/2022 18:14:46 0.02, -75.23 0.59, -72.75 282.91 80
5 05/20/2022 06:39:13 -0.01, -75.24 0.60, -78.02 316.99 80
6 05/21/2022 06:17:49 -0.02, -75.24 -0.43, -73.49 200.06 80
7 05/22/2022 18:39:45 0.01, -75.26 -0.75, -78.80 402.58 80
8 05/23/2022 18:23:40 0.01, -75.27 0.22, -74.26 115.31 80
9 05/25/2022 06:45:27 -0.01, -75.30 0.97, -79.53 482.62 80
10 05/26/2022 06:24:03 -0.01, -75.32 -0.06, -75.00 35.60 80
